Rochester/St. Mary\'s Hospita, MN

5:25 AM CDT on August 19, 2017 (GMT -0500)
Rochester/St. Mary\'s Hospita

Weather History for K9MN - November, 2013

Change the Weather History Date:

Wednesday, November 6, 2013

  Actual Average (KRST) Record (KRST)
Temperature  
Mean Temperature 34 °F -  
Max Temperature 39 °F 43 °F 73 °F (1893)
Min Temperature 30 °F 28 °F -3 °F (1991)
Degree Days  
Heating Degree Days 30    
Moisture  
Dew Point 26 °F    
Average Humidity 75    
Maximum Humidity 99    
Minimum Humidity 44    
Precipitation  
Precipitation 0.01 in - - ()
Sea Level Pressure  
Sea Level Pressure 30.05 in    
Wind  
Wind Speed 12 mph (WNW)    
Max Wind Speed 20 mph    
Max Gust Speed 28 mph    
Visibility 9 miles    
Events      
Averages and records for this station are not official NWS values.
T = Trace of Precipitation, MM = Missing Value Source: NWS Daily Summary

Daily Weather History Graph

Daily Weather History Graph

Search for Another Location

Airport or City:

Trip Planner

Search our weather history database for the weather conditions in past years. The results will help you decide how hot, cold, wet, or windy it might be!

Date:

Astronomy

Nov. 06, 2013 Rise Set
Actual Time 6:53 AM CST 4:53 PM CST
Civil Twilight 6:22 AM CST 5:23 PM CST
Nautical Twilight 5:48 AM CST 5:57 PM CST
Astronomical Twilight 5:14 AM CST 6:31 PM CST
Moon 10:11 AM CST (11/6) 7:55 PM CST (11/6)
Length of Visible Light 11h 00m
Length of Day
9h 59m
Waxing Crescent, 14% of the Moon is Illuminated
Nov 6
Waxing Crescent
Nov 9
First Quarter
Nov 17
Full
Nov 25
Last Quarter
Dec 2
New

Hourly Weather History & Observations

Time (CST) Temp. Windchill Dew Point Humidity Pressure Visibility Wind Dir Wind Speed Gust Speed Precip Events Conditions
12:13 AM 33.1 °F 24.9 °F 32.2 °F 96% 29.90 in 3.0 mi NNW 10.4 mph 20.7 mph N/A   Overcast
12:33 AM 33.3 °F 26.4 °F 32.4 °F 96% 29.90 in 3.0 mi NNW 8.1 mph 17.3 mph 0.01 in   Overcast
12:53 AM 33.3 °F 23.7 °F 32.4 °F 96% 29.89 in 3.0 mi NNW 13.8 mph 23.0 mph 0.01 in   Overcast
1:13 AM 33.1 °F 23.4 °F 32.2 °F 96% 29.90 in 3.0 mi NNW 13.8 mph 24.2 mph N/A   Overcast
1:33 AM 32.9 °F 23.7 °F 32.0 °F 96% 29.91 in 4.0 mi NNW 12.7 mph 19.6 mph N/A   Overcast
1:53 AM 32.5 °F 22.7 °F 32.0 °F 98% 29.91 in 4.0 mi NNW 13.8 mph 21.9 mph N/A   Overcast
2:13 AM 32.4 °F 24.6 °F 32.0 °F 99% 29.91 in 4.0 mi NW 9.2 mph 21.9 mph N/A   Overcast
2:33 AM 32.2 °F 24.4 °F 31.8 °F 99% 29.91 in 4.0 mi NNW 9.2 mph 24.2 mph N/A   Overcast
2:53 AM 32.2 °F 23.8 °F 31.8 °F 99% 29.92 in 5.0 mi NNW 10.4 mph 20.7 mph N/A   Overcast
3:13 AM 32.2 °F 22.7 °F 31.8 °F 99% 29.93 in 7.0 mi NW 12.7 mph 20.7 mph N/A   Overcast
3:33 AM 32.0 °F 23.0 °F 31.6 °F 99% 29.93 in 4.0 mi NW 11.5 mph 23.0 mph N/A   Overcast
3:53 AM 32.0 °F 21.6 °F 31.5 °F 98% 29.94 in 3.0 mi NW 15.0 mph 25.3 mph N/A   Overcast
4:13 AM 32.0 °F 22.5 °F 31.1 °F 96% 29.94 in 5.0 mi NW 12.7 mph 27.6 mph N/A   Overcast
4:34 AM 32.0 °F 22.1 °F 31.1 °F 96% 29.94 in 10.0 mi NW 13.8 mph 23.0 mph N/A   Overcast
4:53 AM 32.0 °F 22.1 °F 30.9 °F 96% 29.95 in 10.0 mi NW 13.8 mph 23.0 mph N/A   Overcast
5:13 AM 32.0 °F 22.5 °F 31.1 °F 96% 29.96 in 7.0 mi NW 12.7 mph 24.2 mph N/A   Overcast
5:34 AM 32.0 °F 22.1 °F 30.9 °F 96% 29.96 in 10.0 mi NW 13.8 mph 27.6 mph N/A   Overcast
5:53 AM 32.0 °F 22.1 °F 30.7 °F 95% 29.96 in 10.0 mi NW 13.8 mph 27.6 mph N/A   Overcast
6:13 AM 32.0 °F 21.2 °F 30.2 °F 93% 29.94 in 10.0 mi NW 16.1 mph 21.9 mph N/A   Overcast
6:34 AM 32.0 °F 23.0 °F 30.2 °F 93% 29.95 in 10.0 mi NW 11.5 mph 19.6 mph N/A   Overcast
6:53 AM 32.0 °F 22.5 °F 30.2 °F 93% 29.96 in 10.0 mi NW 12.7 mph 24.2 mph N/A   Overcast
7:13 AM 31.8 °F 22.3 °F 30.0 °F 93% 29.97 in 10.0 mi NW 12.7 mph 20.7 mph N/A   Overcast
7:34 AM 31.5 °F 21.8 °F 29.3 °F 92% 29.98 in 10.0 mi NW 12.7 mph 24.2 mph N/A   Overcast
7:53 AM 31.6 °F 22.1 °F 29.5 °F 92% 29.99 in 10.0 mi NW 12.7 mph 20.7 mph N/A   Overcast
8:13 AM 31.5 °F 22.3 °F 29.3 °F 92% 30.01 in 10.0 mi NW 11.5 mph 17.3 mph N/A   Overcast
8:34 AM 31.1 °F 20.9 °F 28.0 °F 88% 30.02 in 10.0 mi NW 13.8 mph 23.0 mph N/A   Overcast
8:53 AM 31.5 °F 21.4 °F 27.7 °F 86% 30.02 in 10.0 mi WNW 13.8 mph 20.7 mph N/A   Overcast
9:13 AM 32.0 °F 21.2 °F 28.0 °F 85% 30.03 in 10.0 mi WNW 16.1 mph 23.0 mph N/A   Overcast
9:34 AM 32.4 °F 21.7 °F 28.2 °F 85% 30.03 in 10.0 mi WNW 16.1 mph 21.9 mph N/A   Overcast
9:53 AM 32.9 °F 22.4 °F 26.8 °F 78% 30.04 in 10.0 mi WNW 16.1 mph 20.7 mph N/A   Overcast
10:13 AM 32.9 °F 22.8 °F 25.2 °F 73% 30.04 in 10.0 mi WNW 15.0 mph 24.2 mph N/A   Mostly Cloudy
10:34 AM 33.6 °F 23.3 °F 24.6 °F 70% 30.05 in 10.0 mi WNW 16.1 mph 25.3 mph N/A   Scattered Clouds
10:53 AM 34.5 °F 26.7 °F 24.1 °F 66% 30.05 in 10.0 mi NW 10.4 mph 27.6 mph N/A   Clear
11:13 AM 35.2 °F 26.2 °F 24.1 °F 64% 30.06 in 10.0 mi WNW 13.8 mph 20.7 mph N/A   Clear
11:33 AM 35.6 °F 25.9 °F 24.1 °F 63% 30.06 in 10.0 mi WNW 16.1 mph 20.7 mph N/A   Clear
11:53 AM 36.1 °F 25.5 °F 21.9 °F 56% 30.06 in 10.0 mi WNW 19.6 mph 26.5 mph N/A   Clear
12:13 PM 36.5 °F 28.2 °F 19.4 °F 50% 30.06 in 10.0 mi WNW 12.7 mph 25.3 mph N/A   Clear
12:33 PM 37.4 °F 28.5 °F 20.1 °F 50% 30.06 in 10.0 mi WNW 15.0 mph 25.3 mph N/A   Clear
12:53 PM 37.4 °F 29.3 °F 18.0 °F 45% 30.06 in 10.0 mi NW 12.7 mph 23.0 mph N/A   Clear
1:13 PM 38.5 °F 31.1 °F 18.0 °F 44% 30.07 in 10.0 mi WNW 11.5 mph 19.6 mph N/A   Clear
1:33 PM 38.3 °F 28.7 °F 18.0 °F 44% 30.07 in 10.0 mi WNW 18.4 mph 25.3 mph N/A   Clear
1:53 PM 39.0 °F 29.9 °F 18.9 °F 44% 30.07 in 10.0 mi WNW 17.3 mph 21.9 mph N/A   Clear
2:13 PM 38.7 °F 30.1 °F 19.4 °F 46% 30.08 in 10.0 mi WNW 15.0 mph 24.2 mph N/A   Clear
2:33 PM 38.3 °F 30.5 °F 19.9 °F 48% 30.08 in 10.0 mi WNW 12.7 mph 24.2 mph N/A   Clear
2:53 PM 39.2 °F 31.2 °F 19.4 °F 45% 30.09 in 10.0 mi WNW 13.8 mph 21.9 mph N/A   Clear
3:13 PM 38.8 °F 30.0 °F 19.9 °F 47% 30.10 in 10.0 mi West 16.1 mph 19.6 mph N/A   Clear
3:33 PM 37.9 °F 29.2 °F 21.2 °F 51% 30.11 in 10.0 mi West 15.0 mph 20.7 mph N/A   Clear
3:53 PM 37.6 °F 28.4 °F 21.9 °F 53% 30.12 in 10.0 mi West 16.1 mph 23.0 mph N/A   Clear
4:14 PM 37.6 °F 28.4 °F 22.3 °F 54% 30.12 in 10.0 mi West 16.1 mph 23.0 mph N/A   Clear
4:33 PM 36.5 °F 28.7 °F 22.6 °F 57% 30.12 in 10.0 mi West 11.5 mph 19.6 mph N/A   Clear
4:53 PM 35.6 °F 27.5 °F 22.3 °F 58% 30.13 in 10.0 mi West 11.5 mph 18.4 mph N/A   Clear
5:14 PM 35.1 °F 28.6 °F 23.0 °F 61% 30.13 in 10.0 mi West 8.1 mph - N/A   Clear
5:33 PM 34.7 °F 28.1 °F 23.2 °F 63% 30.14 in 10.0 mi West 8.1 mph - N/A   Clear
5:53 PM 33.8 °F 28.6 °F 23.0 °F 65% 30.14 in 10.0 mi WSW 5.8 mph - N/A   Clear
6:14 PM 33.3 °F 27.1 °F 23.0 °F 66% 30.15 in 10.0 mi WSW 6.9 mph - N/A   Clear
6:33 PM 32.9 °F 25.9 °F 23.2 °F 67% 30.16 in 10.0 mi WSW 8.1 mph - N/A   Clear
6:53 PM 32.7 °F 25.0 °F 23.4 °F 68% 30.16 in 10.0 mi WSW 9.2 mph - N/A   Scattered Clouds
7:14 PM 32.4 °F 24.6 °F 23.0 °F 68% 30.16 in 10.0 mi WSW 9.2 mph - N/A   Scattered Clouds
7:33 PM 32.0 °F 24.8 °F 23.5 °F 71% 30.17 in 10.0 mi WSW 8.1 mph - N/A   Clear
7:53 PM 32.0 °F 24.8 °F 23.5 °F 71% 30.17 in 10.0 mi WSW 8.1 mph - N/A   Clear
8:14 PM 31.6 °F 25.1 °F 23.5 °F 72% 30.16 in 10.0 mi WSW 6.9 mph - N/A   Clear
8:33 PM 31.1 °F 22.4 °F 23.4 °F 73% 30.16 in 10.0 mi SW 10.4 mph - N/A   Clear
8:53 PM 31.1 °F 25.4 °F 23.5 °F 74% 30.16 in 10.0 mi SW 5.8 mph - N/A   Clear
9:14 PM 30.9 °F 27.5 °F 23.4 °F 74% 30.17 in 10.0 mi West 3.5 mph - N/A   Clear
9:33 PM 30.9 °F 27.5 °F 23.5 °F 74% 30.17 in 10.0 mi SW 3.5 mph - N/A   Clear
9:53 PM 30.6 °F 27.1 °F 23.2 °F 74% 30.17 in 10.0 mi SW 3.5 mph - N/A   Clear
10:14 PM 30.9 °F 27.5 °F 23.5 °F 74% 30.17 in 10.0 mi SW 3.5 mph - N/A   Mostly Cloudy
10:33 PM 30.9 °F 27.5 °F 23.4 °F 74% 30.17 in 10.0 mi WSW 3.5 mph - N/A   Overcast
10:53 PM 30.7 °F 27.3 °F 23.2 °F 74% 30.17 in 10.0 mi WSW 3.5 mph - N/A   Overcast
11:13 PM 30.6 °F 23.8 °F 23.4 °F 75% 30.17 in 10.0 mi WSW 6.9 mph - N/A   Overcast
11:33 PM 30.7 °F 23.3 °F 22.8 °F 72% 30.17 in 10.0 mi WSW 8.1 mph - N/A   Overcast
11:53 PM 31.1 °F 23.1 °F 22.8 °F 71% 30.17 in 10.0 mi WSW 9.2 mph - N/A   Overcast